Armadillo
1 44352U 19036P 22125.17160032 .00203251 35757-5 13679-2 0 9992
2 44352 28.5255 66.4377 0174257 287.3839 70.7778 15.55843791158475
NO-104
1 44354U 19036R 22125.28185862 .00099665 -41886-5 99289-3 0 9999
2 44354 28.5264 116.3497 0250258 206.1789 152.5965 15.33954492158030
Move-IIb
1 44398U 19038N 22125.57958261 .00014770 00000-0 73427-3 0 9999
2 44398 97.6248 94.5779 0020485 279.3498 80.5408 15.17560531156537
SONATE
1 44400U 19038Q 22125.57549938 .00006267 00000-0 34474-3 0 9991
2 44400 97.6354 93.9089 0022259 282.3492 77.5242 15.14221183156441
BeeSat 9
1 44412U 19038AC 22125.43044544 .00011241 00000-0 58380-3 0 9992
2 44412 97.6333 94.4358 0018370 284.9270 74.9928 15.16130906156173
JAISAT-1
1 44419U 19038F 22125.42965548 .00015749 00000-0 80524-3 0 9996
2 44419 97.6339 95.2387 0017307 281.9810 77.9483 15.16614832156537
LightSail-2
1 44420U 19036AC 22125.47706654 .00074052 00000-0 10854-1 0 9991
2 44420 24.0023 52.8942 0018177 194.5202 165.4772 14.74004003150724
Taurus 1
1 44530U 19059C 22125.54867390 .00003170 00000-0 88538-3 0 9990
2 44530 98.5438 223.6591 0012418 243.7918 116.1967 14.46870927139645
Duchifat 3
1 44854U 19089C 22125.33162783 .00005153 00000-0 40424-3 0 9998
2 44854 36.9686 355.9299 0008328 243.2980 116.6819 15.00756582131451
OPS-SAT
1 44878U 19092F 22125.46214846 .00011788 00000-0 56012-3 0 9991
2 44878 97.4804 309.8051 0013831 127.6748 232.5743 15.19286293131661
TO-108
1 44881U 19093C 22125.49366878 .00000853 00000-0 11494-3 0 9998
2 44881 97.8932 205.3188 0014330 330.9738 29.0669 14.81671973128411
FloripaSat 1
1 44885U 19093G 22125.43414978 .00002815 00000-0 35273-3 0 9992
2 44885 97.8970 206.4302 0013824 337.6659 22.3938 14.82966466128476
RS-44
1 44909U 19096E 22125.42592610 .00000015 00000-0 10474-4 0 9998
2 44909 82.5204 258.8566 0218208 60.5231 301.7445 12.79713131110008
Phoenix
1 45258U 98067RB 22125.43322182 .00315534 00000-0 12098-2 0 9994
2 45258 51.6302 139.4297 0009326 32.9869 327.1716 15.85958340125604
BY70-2
1 45857U 20042B 22125.54816445 .00009852 00000-0 13325-2 0 9996
2 45857 97.9563 202.8189 0009016 246.6511 113.3680 14.79186325 99119
UPMSat 2
1 46276U 20061E 22125.46080212 .00005573 00000-0 27873-3 0 9999
2 46276 97.3931 197.2704 0001137 39.2599 320.8718 15.17823796 92355
AmicalSat
1 46287U 20061R 22125.40975547 .00010799 00000-0 62836-3 0 9993
2 46287 97.4479 196.1856 0003899 79.8147 280.3523 15.12214721 91964
SALSAT
1 46495U 20068K 22125.39549970 .00004610 00000-0 33449-3 0 9999
2 46495 97.7259 66.6974 0017906 65.3521 294.9567 15.04286016 87710
BY70-3
1 46839U 20079N 22125.59492200 .00022222 00000-0 55647-3 0 9991
2 46839 97.2000 198.3038 0007691 127.8667 12.7895 15.40060895 83643
SPOC
1 46921U 98067RR 22125.32494882 .00275491 00000-0 13535-2 0 9991
2 46921 51.6295 153.8584 0006713 21.5121 338.6162 15.80839468 85155
Neutron-1
1 46923U 98067RT 22125.36658981 .00289608 00000-0 14322-2 0 9999
2 46923 51.6299 154.1491 0006681 18.8072 341.3176 15.80659233 85189
CAPE 3
1 47309U 21002A 22125.51879962 .00012131 00000-0 50728-3 0 9990
2 47309 60.6824 165.9567 0015298 283.5037 76.4346 15.23905534 71907
AO-109
1 47311U 21002C 22125.45627061 .00010292 00000-0 42490-3 0 9990
2 47311 60.6838 164.0166 0011291 279.0817 80.8993 15.24528698 71905
MiTEE 1
1 47314U 21002F 22125.56917672 .00022225 00000-0 79947-3 0 9991
2 47314 60.6815 158.1668 0010108 259.6967 100.2983 15.28589255 72031
ExoCube 2
1 47319U 21002L 22125.57407661 .00010563 00000-0 44107-3 0 9991
2 47319 60.6833 164.5343 0012208 283.9525 76.0204 15.24111040 71876
UVSQ-SAT
1 47438U 21006AB 22125.42692652 .00012771 00000-0 68253-3 0 9998
2 47438 97.4401 185.3284 0013490 69.3752 290.8925 15.15146037 70761
YUSAT 1
1 47439U 21006AC 22125.40804042 .00014479 00000-0 76608-3 0 9995
2 47439 97.4407 185.3765 0013168 69.7503 290.5144 15.15476209 70769
SOMP 2b
1 47445U 21006AJ 22125.21859371 .00007736 00000-0 41850-3 0 9995
2 47445 97.4376 184.8261 0013222 73.7549 286.5137 15.14859183 70720
IDEASSat
1 47458U 21006AX 22125.39405523 .00011164 00000-0 60486-3 0 9990
2 47458 97.4462 185.4542 0012259 71.8631 288.3935 15.14705478 70744
RSP-01
1 47925U 98067SB 22125.35406552 .00310329 00000-0 14113-2 0 9999
2 47925 51.6314 163.0725 0008279 20.2432 339.8897 15.82398888 65000
TAUSAT-1
1 47926U 98067SC 22123.94020726 .05013963 12182-4 10618-2 0 9991
2 47926 51.5963 160.1616 0005913 352.3270 7.7661 16.30011657 64906
Tsuru
1 47927U 98067SD 22125.40726107 .00266257 00000-0 16043-2 0 9992
2 47927 51.6332 165.6872 0006750 20.9718 339.1557 15.76327561 64973
Maya-2
1 47929U 98067SF 22125.40761716 .00269739 00000-0 16378-2 0 9998
2 47929 51.6324 165.6889 0006692 22.1410 337.9878 15.76143458 64931
GuaraniSat-1
1 47931U 98067SH 22125.45681416 .00262330 00000-0 15761-2 0 9999
2 47931 51.6322 165.2864 0006682 20.6242 339.5027 15.76404692 64985
CubeSX-Sirius-HSE
1 47951U 21022V 22125.61452016 .00005714 00000-0 38305-3 0 9999
2 47951 97.5340 26.0336 0020062 295.0060 152.3153 15.07093511 61546
CubeSX-HSE
1 47952U 21022W 22125.48646815 .00006135 00000-0 41032-3 0 9996
2 47952 97.5347 25.9265 0019961 294.2537 239.0594 15.07152766 61527
KSU-Cubesat
1 47954U 21022Y 22125.29225316 .00007804 00000-0 51816-3 0 9991
2 47954 97.5339 25.8199 0019148 295.1383 64.7858 15.07346748 61229
GRBAlpha
1 47959U 21022AD 22125.48550403 .00006223 00000-0 41597-3 0 9994
2 47959 97.5351 25.9586 0019745 295.0880 239.8468 15.07172738 60343
Orbicraft-Zorkiy
1 47960U 21022AE 22125.58643816 .00005617 00000-0 37480-3 0 9990
2 47960 97.5366 26.1709 0019128 294.9006 183.6404 15.07291250 61050
STECCO
1 47962U 21022AG 22125.52214388 .00008986 00000-0 56995-3 0 9998
2 47962 97.5341 26.6762 0014216 289.8681 173.3843 15.09054569 60395
DO-111
1 47963U 21022AH 22125.55133307 .00023988 00000-0 13905-2 0 9995
2 47963 97.5351 27.4446 0015074 282.7468 77.2078 15.12082513 60467
MO-110
1 47964U 21022AJ 22125.29275508 .00013068 00000-0 81805-3 0 9990
2 47964 97.5334 26.6713 0016859 286.0277 73.9095 15.09400477 60375
FEES
1 48082U 21022AL 22125.43464471 .00012726 00000-0 79172-3 0 9991
2 48082 97.5346 26.6921 0012792 282.6592 77.3207 15.09683252 60091
RamSat
1 48850U 98067SL 22125.56604824 .00098452 00000-0 99636-3 0 9996
2 48850 51.6368 175.7610 0004435 330.9254 29.1493 15.64479555 50605
TUBIN
1 48900U 21059X 22125.46939216 .00005282 00000-0 29806-3 0 9995
2 48900 97.5462 255.1408 0008902 248.8447 180.3452 15.13548699 47417
IT-SPINS
1 49017U 21013G 22125.62899224 .00014083 00000-0 55604-3 0 9991
2 49017 51.5971 244.5266 0008304 285.7229 74.2832 15.25744351 47240
LEDSAT
1 49069U 21073D 22125.46652496 .00005947 00000-0 38340-3 0 9991
2 49069 97.5257 199.2129 0028920 82.9369 277.5147 15.08332346 39354
CUTE
1 49263U 21088D 22125.45228878 .00008194 00000-0 61496-3 0 9990
2 49263 97.5922 194.2367 0019978 202.7492 157.2850 15.02726979 32968
Binar-1
1 49272U 98067SR 22125.37535785 .00137234 00000-0 14247-2 0 9999
2 49272 51.6357 180.4651 0002464 47.4419 312.6783 15.63679602 32913
Maya-3
1 49273U 98067SS 22125.39635419 .00205943 00000-0 17497-2 0 9990
2 49273 51.6349 178.3525 0004398 26.6996 333.4226 15.68427868 32944
Maya-4
1 49274U 98067ST 22125.40908471 .00202898 00000-0 17432-2 0 9999
2 49274 51.6344 178.4342 0004402 27.9988 332.1245 15.68164576 32940
CUAVA-1
1 49275U 98067SU 22125.61170815 .00085698 00000-0 81044-3 0 9994
2 49275 51.6373 178.0051 0002157 38.4079 93.0181 15.66247948 32911
